When you browse on this site, cookies collect data to enhance your experience and personalize the content and advertising you see.
Visit our Privacy Policy to learn more. By continuing to use the site, you agree to this use of cookies and data.
  • In United Kingdom
  • List of Countries
  • For 7 days
  • Water Temperature
  • Weather Map
  • Weather Widgets
  • user-avatar
    Login

    Hourly Weather Lampeter

    Today, 30 March, Monday

    Time Temperature Precipitation Wind Pressure Humidity
    00:00 +1°C° 0 mm 3 mps 775 mmHg 84%
    01:00 +1°C° 0 mm 3 mps 775 mmHg 85%
    02:00 +1°C° 0 mm 3 mps 774 mmHg 87%
    03:00 +1°C° 0 mm 3 mps 774 mmHg 89%
    04:00 +1°C° 0 mm 3 mps 774 mmHg 89%
    05:00 +1°C° 0 mm 3 mps 774 mmHg 89%
    06:00 +1°C° 0 mm 3 mps 774 mmHg 90%
    07:00 +3°C° 0 mm 3 mps 774 mmHg 83%
    08:00 +4°C° 0 mm 3 mps 773 mmHg 77%
    09:00 +7°C° 0 mm 3 mps 773 mmHg 70%
    10:00 +7°C° 0 mm 4 mps 773 mmHg 69%
    11:00 +7°C° 0 mm 4 mps 773 mmHg 68%
    12:00 +8°C° 0 mm 4 mps 772 mmHg 67%
    13:00 +8°C° 0 mm 4 mps 772 mmHg 65%
    14:00 +8°C° 0 mm 4 mps 772 mmHg 64%
    15:00 +10°C° 0 mm 4 mps 772 mmHg 63%
    16:00 +9°C° 0 mm 3 mps 772 mmHg 67%
    17:00 +8°C° 0 mm 2 mps 772 mmHg 71%
    18:00 +8°C° 0 mm 2 mps 771 mmHg 74%
    19:00 +7°C° 0 mm 2 mps 772 mmHg 77%
    20:00 +7°C° 0 mm 1 mps 772 mmHg 79%
    21:00 +7°C° 0 mm 1 mps 772 mmHg 82%
    22:00 +7°C° 0 mm 1 mps 772 mmHg 82%
    23:00 +7°C° 0 mm 1 mps 772 mmHg 83%

    Tomorrow, 31 March, Tuesday

    Time Temperature Precipitation Wind Pressure Humidity
    00:00 +6°C° 0 mm 1 mps 772 mmHg 84%
    01:00 +6°C° 0 mm 1 mps 772 mmHg 85%
    02:00 +6°C° 0 mm 1 mps 772 mmHg 85%
    03:00 +6°C° 0 mm 1 mps 771 mmHg 86%
    04:00 +5°C° 0 mm 1 mps 771 mmHg 86%
    05:00 +5°C° 0 mm 1 mps 771 mmHg 86%
    06:00 +4°C° 0 mm 1 mps 771 mmHg 87%
    07:00 +5°C° 0 mm 1 mps 771 mmHg 82%
    08:00 +6°C° 0 mm 1 mps 771 mmHg 78%
    09:00 +7°C° 0 mm 2 mps 770 mmHg 74%
    10:00 +7°C° 0 mm 2 mps 770 mmHg 71%
    11:00 +8°C° 0 mm 2 mps 770 mmHg 69%
    12:00 +8°C° 0 mm 2 mps 770 mmHg 66%
    13:00 +9°C° 0 mm 2 mps 769 mmHg 64%
    14:00 +9°C° 0 mm 2 mps 769 mmHg 62%
    15:00 +10°C° 0 mm 2 mps 768 mmHg 60%
    16:00 +9°C° 0 mm 2 mps 768 mmHg 63%
    17:00 +9°C° 0 mm 2 mps 768 mmHg 66%
    18:00 +8°C° 0 mm 2 mps 767 mmHg 69%
    19:00 +7°C° 0 mm 2 mps 767 mmHg 70%
    20:00 +7°C° 0 mm 2 mps 767 mmHg 71%
    21:00 +6°C° 0 mm 2 mps 766 mmHg 72%
    22:00 +5°C° 0 mm 2 mps 766 mmHg 74%
    23:00 +5°C° 0 mm 2 mps 766 mmHg 76%

    Day after tomorrow, 1 April, Wednesday

    Time Temperature Precipitation Wind Pressure Humidity
    00:00 +4°C° 0 mm 2 mps 765 mmHg 77%
    01:00 +4°C° 0 mm 2 mps 764 mmHg 80%
    02:00 +3°C° 0 mm 2 mps 764 mmHg 83%
    03:00 +1°C° 0 mm 3 mps 763 mmHg 85%
    04:00 +2°C° 0 mm 3 mps 763 mmHg 85%
    05:00 +2°C° 0 mm 3 mps 762 mmHg 84%
    06:00 +2°C° 0 mm 3 mps 762 mmHg 84%
    07:00 +3°C° 0 mm 4 mps 762 mmHg 79%
    08:00 +5°C° 0 mm 5 mps 761 mmHg 73%
    09:00 +5°C° 0 mm 6 mps 761 mmHg 68%
    10:00 +7°C° 0 mm 6 mps 760 mmHg 68%
    11:00 +7°C° 0 mm 6 mps 760 mmHg 68%
    12:00 +7°C° 0 mm 6 mps 760 mmHg 68%
    13:00 +8°C° 0 mm 7 mps 760 mmHg 69%
    14:00 +8°C° 0 mm 7 mps 759 mmHg 70%
    15:00 +8°C° 0 mm 7 mps 758 mmHg 71%
    16:00 +8°C° 0 mm 7 mps 758 mmHg 74%
    17:00 +7°C° 0 mm 6 mps 758 mmHg 78%
    18:00 +7°C° 0 mm 6 mps 758 mmHg 81%
    19:00 +5°C° 0 mm 6 mps 757 mmHg 84%
    20:00 +6°C° 0 mm 5 mps 757 mmHg 87%
    21:00 +5°C° 0 mm 5 mps 757 mmHg 89%
    22:00 +5°C° 0 mm 5 mps 757 mmHg 90%
    23:00 +5°C° 0 mm 5 mps 756 mmHg 91%

    2 April, Thursday

    Time Temperature Precipitation Wind Pressure Humidity
    00:00 +5°C° 0 mm 4 mps 756 mmHg 91%
    01:00 +5°C° 0 mm 5 mps 755 mmHg 91%
    02:00 +5°C° 0 mm 5 mps 755 mmHg 90%
    03:00 +4°C° 0 mm 6 mps 754 mmHg 90%
    04:00 +4°C° 0 mm 6 mps 753 mmHg 88%
    05:00 +4°C° 0 mm 7 mps 752 mmHg 86%
    06:00 +4°C° 0 mm 7 mps 752 mmHg 84%
    07:00 +5°C° 0 mm 8 mps 751 mmHg 81%
    08:00 +6°C° 0 mm 9 mps 750 mmHg 79%
    09:00 +7°C° 0 mm 10 mps 750 mmHg 76%
    10:00 +7°C° 0 mm 10 mps 750 mmHg 71%
    11:00 +7°C° 0 mm 10 mps 750 mmHg 67%
    12:00 +7°C° 0 mm 10 mps 750 mmHg 62%
    13:00 +7°C° 0 mm 10 mps 750 mmHg 59%
    14:00 +6°C° 0 mm 10 mps 750 mmHg 57%
    15:00 +6°C° 0 mm 9 mps 751 mmHg 54%
    16:00 +5°C° 0 mm 8 mps 751 mmHg 55%
    17:00 +4°C° 0 mm 7 mps 752 mmHg 56%
    18:00 +3°C° 0 mm 6 mps 752 mmHg 57%
    19:00 +2°C° 0 mm 6 mps 753 mmHg 61%
    20:00 +2°C° 0 mm 5 mps 753 mmHg 64%
    21:00 +1°C° 0 mm 5 mps 754 mmHg 67%
    22:00 0°C° 0 mm 5 mps 755 mmHg 70%
    23:00 0°C° 0 mm 4 mps 755 mmHg 73%

    3 April, Friday

    Time Temperature Precipitation Wind Pressure Humidity
    00:00 0°C° 0 mm 4 mps 756 mmHg 76%
    01:00 0°C° 0 mm 3 mps 756 mmHg 78%
    02:00 0°C° 0 mm 3 mps 756 mmHg 79%
    03:00 0°C° 0 mm 3 mps 756 mmHg 81%
    04:00 +1°C° 0 mm 2 mps 757 mmHg 81%
    05:00 -1°C° 0 mm 2 mps 757 mmHg 81%
    06:00 -1°C° 0 mm 2 mps 758 mmHg 82%
    07:00 +2°C° 0 mm 2 mps 758 mmHg 73%
    08:00 +4°C° 0 mm 2 mps 759 mmHg 65%
    09:00 +5°C° 0 mm 3 mps 759 mmHg 56%
    10:00 +5°C° 0 mm 3 mps 759 mmHg 54%
    11:00 +7°C° 0 mm 3 mps 759 mmHg 51%
    12:00 +8°C° 0 mm 2 mps 759 mmHg 49%
    13:00 +8°C° 0 mm 3 mps 759 mmHg 51%
    14:00 +8°C° 0 mm 3 mps 759 mmHg 54%
    15:00 +8°C° 0 mm 3 mps 759 mmHg 56%
    16:00 +7°C° 0 mm 3 mps 760 mmHg 61%
    17:00 +7°C° 0 mm 3 mps 760 mmHg 65%
    18:00 +5°C° 0 mm 3 mps 760 mmHg 70%
    19:00 +4°C° 0 mm 3 mps 760 mmHg 74%
    20:00 +3°C° 0 mm 3 mps 760 mmHg 77%
    21:00 +2°C° 0 mm 2 mps 760 mmHg 80%
    22:00 +2°C° 0 mm 2 mps 760 mmHg 82%
    23:00 +2°C° 0 mm 2 mps 760 mmHg 83%

    4 April, Saturday

    Time Temperature Precipitation Wind Pressure Humidity
    00:00 +1°C° 0 mm 2 mps 759 mmHg 84%
    01:00 +1°C° 0 mm 2 mps 759 mmHg 85%
    02:00 +1°C° 0 mm 2 mps 759 mmHg 86%
    03:00 +1°C° 0 mm 2 mps 758 mmHg 87%
    04:00 +1°C° 0 mm 2 mps 758 mmHg 87%
    05:00 +1°C° 0 mm 2 mps 758 mmHg 87%
    06:00 +1°C° 0 mm 2 mps 758 mmHg 87%
    07:00 +1°C° 0 mm 3 mps 758 mmHg 83%
    08:00 +3°C° 0 mm 4 mps 758 mmHg 80%
    09:00 +4°C° 0 mm 4 mps 757 mmHg 76%
    10:00 +5°C° 0 mm 5 mps 757 mmHg 74%
    11:00 +6°C° 0 mm 5 mps 757 mmHg 72%
    12:00 +7°C° 0 mm 5 mps 757 mmHg 69%
    13:00 +7°C° 0 mm 5 mps 757 mmHg 69%
    14:00 +7°C° 0 mm 5 mps 756 mmHg 69%
    15:00 +8°C° 0 mm 5 mps 756 mmHg 69%
    16:00 +7°C° 0 mm 5 mps 756 mmHg 71%
    17:00 +7°C° 0 mm 5 mps 756 mmHg 73%
    18:00 +6°C° 0 mm 4 mps 756 mmHg 75%
    19:00 +6°C° 0 mm 4 mps 756 mmHg 79%
    20:00 +5°C° 0 mm 4 mps 756 mmHg 83%
    21:00 +4°C° 0 mm 4 mps 756 mmHg 87%
    22:00 +4°C° 0 mm 4 mps 757 mmHg 88%
    23:00 +4°C° 0 mm 4 mps 757 mmHg 88%
    Show more